[[{"header":{"parameterUnit":"m.s-1","parameterCategory":1,"la1":30.2992,"la2":30.254,"lo1":-89.0895,"lo2":-89.0443,"dy":0.0025,"dx":0.0025,"nx":19,"ny":19,"refTime":"2026-03-18T21:00:00:Z","depth":0,"parameterNumber":2,"parameterNumberName":"U-component_of_WINDS"},"data":[0,0,0,1.3053,1.3054,1.3101,1.3102,1.3151,1.3151,0,0,0,0,0,0,0,0,0,0,0,1.3032,1.3032,1.3053,1.3054,1.3101,1.3102,1.3151,1.3151,0,0,0,0,0,0,0,0,0,0,0,1.3032,1.3032,1.3032,1.3054,1.3101,1.3102,1.3151,1.3119,0,0,0,0,0,0,0,0,0,0,1.3075,1.3049,1.3032,1.3032,1.3054,1.3101,1.3102,1.3118,1.3121,1.3125,0,1.3126,0,1.3139,1.3154,1.3154,0,0,0,1.3059,1.3046,1.3065,1.3032,1.3055,1.3101,1.3081,1.312,1.3124,1.3129,1.3127,1.3129,1.314,1.3154,1.3154,1.3156,1.3156,0,0,1.3057,1.3037,1.3062,1.3067,1.3059,1.308,1.3083,1.3122,1.3118,1.3127,1.313,1.3141,1.3155,1.3155,1.3157,1.3156,0,0,0,1.3046,1.3035,1.3053,1.3065,1.3074,1.3081,1.3085,1.3117,1.3124,1.3131,1.3142,1.3155,1.3155,1.3157,1.3157,1.3124,0,0,0,1.3044,1.3028,1.3052,1.304,1.3073,1.3096,1.3078,1.3122,1.3127,1.3141,1.3155,1.3156,1.3157,1.3157,1.3126,1.3112,0,0,0,1.3031,1.3027,1.3031,1.3039,1.3059,1.3096,1.3106,1.3123,1.3133,1.3154,1.3156,1.3157,1.3157,1.3127,1.3115,1.3106,0,0,0,1.3012,1.3003,1.303,1.3025,1.3058,1.3076,1.3106,1.312,1.3135,1.3155,1.3157,1.3157,1.3128,1.3116,1.3108,1.3095,1.3088,0,0,1.2989,1.2999,1.2997,1.3024,1.3031,1.307,1.3073,1.3106,1.3126,1.3145,1.3146,1.3125,1.3115,1.3107,1.3058,1.3052,0,0,0,1.2983,1.2982,1.2988,1.3001,1.3025,1.3045,1.3079,1.3091,1.3108,1.3132,1.3121,1.3116,1.3112,1.3106,1.3102,1.3099,1.3154,1.3154,1.3154,1.2922,1.2949,1.2947,1.2979,1.2991,1.3026,1.3038,1.3061,1.3084,1.3081,1.3087,1.3054,1.3047,1.3044,1.3041,1.3083,1.3083,1.3083,1.3083,1.2891,1.2892,1.2924,1.2933,1.2961,1.297,1.3004,1.302,1.3032,1.3052,1.305,1.3069,1.3037,1.3035,1.3081,1.3081,1.3081,1.3082,1.3082,1.2852,1.2857,1.2872,1.2893,1.2906,1.294,1.295,1.2975,1.3,1.2998,1.3006,1.3006,1.3009,1.3,1.3,1.3,1.3,1.2999,1.2999,1.2806,1.2824,1.2829,1.2854,1.2866,1.2884,1.2919,1.2931,1.2951,1.2969,1.2969,1.2992,1.3029,1.3037,1.2998,1.2998,1.2998,1.2998,1.2999,1.2762,1.2776,1.2784,1.2795,1.2827,1.2838,1.2871,1.2893,1.2907,1.291,1.2935,1.2958,1.297,1.2974,1.2981,1.293,1.293,1.293,1.293,1.2729,1.2738,1.2751,1.2768,1.2787,1.2817,1.2825,1.2852,1.2883,1.2893,1.2904,1.2916,1.2919,1.2929,1.2934,1.2941,1.288,1.288,1.288,1.2703,1.2715,1.2716,1.2746,1.2773,1.2795,1.2803,1.282,1.2858,1.2879,1.2901,1.2903,1.2922,1.2927,1.2947,1.2954,1.2967,0,0]},{"header":{"parameterUnit":"m.s-1","parameterCategory":1,"la1":30.2992,"la2":30.254,"lo1":-89.0895,"lo2":-89.0443,"dy":0.0025,"dx":0.0025,"nx":19,"ny":19,"refTime":"2026-03-18T21:00:00:Z","depth":0,"parameterNumber":3,"parameterNumberName":"V-component_of_WINDS"},"data":[0,0,0,1.4411,1.4412,1.4468,1.4468,1.4524,1.4525,0,0,0,0,0,0,0,0,0,0,0,1.4388,1.4388,1.4411,1.4413,1.4468,1.4468,1.4524,1.4525,0,0,0,0,0,0,0,0,0,0,0,1.4388,1.4388,1.4388,1.4413,1.4468,1.4468,1.4524,1.4487,0,0,0,0,0,0,0,0,0,0,1.4436,1.4407,1.4388,1.4388,1.4413,1.4468,1.4468,1.4486,1.449,1.4493,0,1.4496,0,1.4511,1.4528,1.4528,0,0,0,1.4418,1.4404,1.4425,1.4388,1.4413,1.4467,1.4444,1.4488,1.4492,1.4498,1.4497,1.4499,1.4512,1.4528,1.4528,1.4531,1.4531,0,0,1.4415,1.4394,1.4422,1.4428,1.4419,1.4443,1.4446,1.4491,1.4487,1.4497,1.4501,1.4513,1.4528,1.4529,1.4531,1.4531,0,0,0,1.4403,1.4391,1.4412,1.4425,1.4436,1.4444,1.4448,1.4485,1.4494,1.4501,1.4513,1.4528,1.4529,1.4532,1.4531,1.4497,0,0,0,1.4401,1.4384,1.441,1.4398,1.4435,1.4462,1.4441,1.4491,1.4497,1.4513,1.4528,1.4529,1.4532,1.4531,1.4498,1.4484,0,0,0,1.4387,1.4382,1.4388,1.4396,1.4419,1.4462,1.4473,1.4493,1.4504,1.4528,1.453,1.4532,1.4532,1.45,1.4486,1.4476,0,0,0,1.4365,1.4358,1.4387,1.4383,1.4419,1.444,1.4473,1.449,1.4507,1.4529,1.4532,1.4531,1.45,1.4488,1.4478,1.4463,1.4456,0,0,1.4344,1.4355,1.4354,1.4382,1.4392,1.4433,1.4439,1.4475,1.4497,1.4518,1.4519,1.4498,1.4486,1.4477,1.4423,1.4416,0,0,0,1.434,1.4339,1.4347,1.4361,1.4388,1.4409,1.4446,1.4459,1.4477,1.4504,1.4493,1.4487,1.4482,1.4476,1.4471,1.4467,1.4528,1.4528,1.4528,1.428,1.4307,1.4307,1.434,1.4354,1.4391,1.4403,1.4427,1.4453,1.4449,1.4455,1.4419,1.4411,1.4407,1.4403,1.4451,1.4451,1.4451,1.4451,1.425,1.4252,1.4283,1.4295,1.4323,1.4332,1.4367,1.4384,1.4395,1.4418,1.4415,1.4435,1.44,1.4397,1.4449,1.4449,1.4449,1.4449,1.445,1.4212,1.4218,1.4233,1.4254,1.4267,1.4301,1.431,1.4336,1.4361,1.4358,1.4366,1.4366,1.4368,1.436,1.436,1.436,1.436,1.436,1.4359,1.4167,1.4185,1.4189,1.4214,1.4225,1.4243,1.4277,1.4289,1.4307,1.4326,1.4326,1.4349,1.4392,1.4401,1.4358,1.4358,1.4358,1.4358,1.4358,1.4124,1.4137,1.4144,1.4154,1.4184,1.4193,1.4226,1.4246,1.4259,1.4262,1.4286,1.4313,1.4326,1.4331,1.4338,1.4281,1.4281,1.4281,1.4281,1.4091,1.41,1.4111,1.4125,1.4142,1.4172,1.4175,1.4201,1.423,1.4239,1.4251,1.4264,1.4267,1.4278,1.4284,1.4291,1.4224,1.4224,1.4223,1.4065,1.4076,1.4075,1.4103,1.4127,1.4147,1.4151,1.4165,1.4201,1.4222,1.4246,1.4249,1.4269,1.4275,1.4296,1.4304,1.4318,0,0]}]]